EZY83HG LFRN-EGKK

Flight info

Callsign EZY83HG
Flight time 0h 54m
Altitude 28000
Route ATNIS T501 EKRAS UT507 REVTU UP88 VASUX
Aircraft A319/M-SDE3FGHIRWY/LB1

Departure

Time 2026-05-06 17:32
Airport Rennes-Saint-Jacques Airport (LFRN)

Arrival

Time 2026-05-06 18:26
Airport London Gatwick Airport (EGKK)
Time Latitude Longitude Altitude Speed Heading
2026-05-06 17:05 48.06909 -1.72733 133 ft 0 kts 224°
2026-05-06 17:25 48.06908 -1.72750 133 ft 4 kts 275°
2026-05-06 17:26 48.06924 -1.72767 133 ft 2 kts 348°
2026-05-06 17:26 48.06942 -1.72766 133 ft 3 kts
2026-05-06 17:26 48.06966 -1.72765 133 ft 4 kts 352°
2026-05-06 17:26 48.06982 -1.72787 133 ft 4 kts 302°
2026-05-06 17:27 48.06993 -1.72846 133 ft 8 kts 280°
2026-05-06 17:27 48.07003 -1.72924 133 ft 7 kts 281°
2026-05-06 17:27 48.07013 -1.73009 133 ft 10 kts 280°
2026-05-06 17:27 48.07029 -1.73130 133 ft 14 kts 281°
2026-05-06 17:28 48.07049 -1.73292 126 ft 18 kts 281°
2026-05-06 17:28 48.07074 -1.73466 129 ft 17 kts 293°
2026-05-06 17:28 48.07164 -1.73575 124 ft 17 kts 332°
2026-05-06 17:28 48.07254 -1.73702 117 ft 21 kts 282°
2026-05-06 17:29 48.07284 -1.73949 108 ft 30 kts 281°
2026-05-06 17:29 48.07323 -1.74252 102 ft 30 kts 281°
2026-05-06 17:29 48.07307 -1.74512 91 ft 23 kts 250°
2026-05-06 17:29 48.07350 -1.74596 86 ft 14 kts 19°
2026-05-06 17:30 48.07353 -1.74496 94 ft 9 kts 107°
2026-05-06 17:30 48.07345 -1.74432 95 ft 3 kts 99°
2026-05-06 17:30 48.07345 -1.74430 95 ft 0 kts 99°
2026-05-06 17:31 48.07319 -1.74212 102 ft 61 kts 101°
2026-05-06 17:31 48.07193 -1.73213 128 ft 132 kts 100°
2026-05-06 17:32 48.07016 -1.71793 698 ft 138 kts 98°
2026-05-06 17:32 48.06840 -1.70384 1357 ft 143 kts 99°
2026-05-06 17:32 48.06635 -1.68797 1864 ft 164 kts 99°
2026-05-06 17:32 48.06409 -1.67030 2330 ft 186 kts 100°
2026-05-06 17:33 48.06151 -1.65010 2792 ft 209 kts 100°
2026-05-06 17:33 48.05866 -1.62775 3308 ft 230 kts 100°
2026-05-06 17:33 48.05610 -1.60340 4066 ft 242 kts 90°
2026-05-06 17:33 48.06008 -1.57832 4748 ft 261 kts 59°
2026-05-06 17:34 48.07259 -1.55818 5703 ft 268 kts 39°
2026-05-06 17:34 48.08680 -1.53968 6779 ft 273 kts 39°
2026-05-06 17:34 48.10115 -1.52075 7814 ft 277 kts 40°
2026-05-06 17:34 48.11076 -1.50798 8509 ft 280 kts 40°
2026-05-06 17:35 48.12541 -1.48847 9541 ft 284 kts 39°
2026-05-06 17:35 48.14238 -1.47335 10391 ft 291 kts 16°
2026-05-06 17:35 48.16307 -1.47145 10825 ft 309 kts 348°
2026-05-06 17:36 48.20683 -1.47885 12454 ft 325 kts 359°
2026-05-06 17:36 48.22959 -1.47779 13359 ft 330 kts
2026-05-06 17:36 48.25267 -1.47595 14173 ft 335 kts
2026-05-06 17:36 48.27606 -1.47365 14952 ft 339 kts
2026-05-06 17:37 48.29975 -1.47113 15731 ft 343 kts
2026-05-06 17:37 48.32373 -1.46862 16502 ft 347 kts
2026-05-06 17:37 48.34804 -1.46622 17271 ft 351 kts
2026-05-06 17:37 48.37230 -1.46388 18031 ft 355 kts
2026-05-06 17:38 48.39713 -1.46241 18729 ft 359 kts 356°
2026-05-06 17:38 48.42215 -1.46419 19411 ft 362 kts 355°
2026-05-06 17:38 48.44742 -1.46607 20106 ft 365 kts 355°
2026-05-06 17:38 48.47292 -1.46798 20804 ft 368 kts 355°
2026-05-06 17:39 48.49865 -1.46989 21489 ft 371 kts 355°
2026-05-06 17:39 48.52456 -1.47181 22173 ft 375 kts 356°
2026-05-06 17:39 48.55074 -1.47372 22848 ft 378 kts 356°
2026-05-06 17:39 48.57713 -1.47563 23517 ft 382 kts 356°
2026-05-06 17:40 48.60382 -1.47758 24079 ft 385 kts 356°
2026-05-06 17:40 48.63069 -1.47952 24629 ft 388 kts 356°
2026-05-06 17:40 48.65776 -1.48147 25161 ft 391 kts 356°
2026-05-06 17:40 48.68509 -1.48344 25690 ft 394 kts 356°
2026-05-06 17:41 48.71261 -1.48543 26214 ft 398 kts 356°
2026-05-06 17:41 48.74032 -1.48744 26715 ft 401 kts 356°
2026-05-06 17:41 48.76833 -1.48950 27215 ft 404 kts 356°
2026-05-06 17:41 48.79648 -1.49160 27714 ft 407 kts 356°
2026-05-06 17:42 48.82498 -1.49372 27947 ft 409 kts 356°
2026-05-06 17:42 48.85300 -1.49578 27984 ft 394 kts 356°
2026-05-06 17:42 48.87986 -1.49773 27986 ft 378 kts 356°
2026-05-06 17:42 48.90547 -1.50121 27989 ft 371 kts 348°
2026-05-06 17:43 48.93071 -1.50918 27988 ft 369 kts 347°
2026-05-06 17:43 48.95584 -1.51724 27985 ft 369 kts 347°
2026-05-06 17:43 48.98101 -1.52529 27988 ft 368 kts 347°
2026-05-06 17:43 49.00614 -1.53337 27990 ft 368 kts 347°
2026-05-06 17:44 49.03123 -1.54146 27987 ft 368 kts 347°
2026-05-06 17:44 49.05601 -1.54946 27985 ft 368 kts 347°
2026-05-06 17:44 49.08106 -1.55755 27992 ft 369 kts 347°
2026-05-06 17:44 49.10616 -1.56564 27992 ft 369 kts 347°
2026-05-06 17:45 49.13136 -1.57373 27990 ft 369 kts 347°
2026-05-06 17:45 49.15647 -1.58180 27989 ft 369 kts 347°
2026-05-06 17:45 49.18168 -1.58995 27989 ft 369 kts 347°
2026-05-06 17:45 49.20681 -1.59802 27988 ft 369 kts 347°
2026-05-06 17:46 49.23198 -1.60613 27989 ft 369 kts 347°
2026-05-06 17:46 49.25712 -1.61426 27988 ft 369 kts 347°
2026-05-06 17:46 49.28227 -1.62244 27985 ft 369 kts 347°
2026-05-06 17:46 49.30737 -1.63063 27992 ft 369 kts 347°
2026-05-06 17:47 49.33256 -1.63886 27993 ft 369 kts 347°
2026-05-06 17:47 49.35775 -1.64711 27996 ft 369 kts 347°
2026-05-06 17:47 49.38291 -1.65529 27996 ft 369 kts 347°
2026-05-06 17:47 49.40805 -1.66346 27996 ft 369 kts 347°
2026-05-06 17:48 49.43321 -1.67167 27993 ft 369 kts 347°
2026-05-06 17:48 49.45803 -1.67982 27996 ft 369 kts 347°
2026-05-06 17:48 49.48325 -1.68814 27996 ft 369 kts 347°
2026-05-06 17:48 49.50839 -1.69644 27996 ft 369 kts 347°
2026-05-06 17:49 49.55858 -1.71298 28002 ft 369 kts 347°
2026-05-06 17:49 49.58399 -1.71794 28001 ft 371 kts 358°
2026-05-06 17:49 49.60982 -1.71523 28001 ft 372 kts
2026-05-06 17:50 49.63480 -1.70506 27998 ft 374 kts 18°
2026-05-06 17:50 49.65938 -1.69142 27998 ft 374 kts 18°
2026-05-06 17:50 49.68389 -1.67791 27996 ft 374 kts 18°
2026-05-06 17:50 49.70843 -1.66439 27998 ft 374 kts 18°
2026-05-06 17:51 49.73297 -1.65085 27995 ft 374 kts 18°
2026-05-06 17:51 49.75745 -1.63730 27996 ft 374 kts 18°
2026-05-06 17:51 49.78198 -1.62369 27996 ft 374 kts 18°
2026-05-06 17:51 49.80641 -1.61010 27996 ft 374 kts 18°
2026-05-06 17:52 49.83092 -1.59648 27995 ft 374 kts 18°
2026-05-06 17:52 49.85543 -1.58288 27995 ft 374 kts 18°
2026-05-06 17:52 49.87991 -1.56930 27994 ft 374 kts 18°
2026-05-06 17:52 49.90445 -1.55565 27994 ft 374 kts 18°
2026-05-06 17:53 49.92894 -1.54192 27989 ft 374 kts 18°
2026-05-06 17:53 49.95345 -1.52816 27990 ft 374 kts 18°
2026-05-06 17:53 49.97790 -1.51446 27995 ft 374 kts 18°
2026-05-06 17:53 50.00214 -1.50089 27994 ft 374 kts 18°
2026-05-06 17:54 50.02682 -1.48789 27989 ft 374 kts 16°
2026-05-06 17:54 50.05164 -1.47570 27982 ft 374 kts 15°
2026-05-06 17:54 50.07581 -1.46092 27978 ft 376 kts 28°
2026-05-06 17:54 50.09839 -1.44013 27700 ft 378 kts 29°
2026-05-06 17:55 50.12088 -1.41908 27254 ft 375 kts 30°
2026-05-06 17:55 50.12842 -1.41198 27117 ft 374 kts 30°
2026-05-06 17:55 50.13324 -1.40742 27042 ft 373 kts 30°
2026-05-06 17:55 50.15526 -1.38642 26591 ft 370 kts 30°
2026-05-06 17:56 50.17714 -1.36552 26161 ft 367 kts 30°
2026-05-06 17:56 50.19887 -1.34484 25728 ft 365 kts 30°
2026-05-06 17:56 50.22047 -1.32430 25273 ft 362 kts 30°
2026-05-06 17:56 50.24194 -1.30389 24820 ft 360 kts 30°
2026-05-06 17:57 50.26336 -1.28349 24351 ft 359 kts 30°
2026-05-06 17:57 50.28467 -1.26316 23880 ft 357 kts 30°
2026-05-06 17:57 50.30586 -1.24296 23399 ft 356 kts 30°
2026-05-06 17:57 50.32699 -1.22279 22912 ft 354 kts 30°
2026-05-06 17:58 50.34767 -1.20306 22469 ft 350 kts 30°
2026-05-06 17:58 50.36840 -1.18329 22028 ft 348 kts 30°
2026-05-06 17:58 50.38902 -1.16359 21589 ft 345 kts 30°
2026-05-06 17:58 50.40944 -1.14409 21161 ft 343 kts 30°
2026-05-06 17:59 50.42975 -1.12464 20739 ft 341 kts 30°
2026-05-06 17:59 50.44991 -1.10530 20330 ft 339 kts 30°
2026-05-06 17:59 50.46997 -1.08596 19905 ft 337 kts 30°
2026-05-06 17:59 50.48992 -1.06673 19486 ft 336 kts 30°
2026-05-06 18:00 50.50980 -1.04756 19076 ft 335 kts 30°
2026-05-06 18:00 50.52961 -1.02842 18671 ft 334 kts 30°
2026-05-06 18:00 50.54935 -1.00934 18251 ft 333 kts 30°
2026-05-06 18:00 50.56909 -0.99028 17808 ft 331 kts 30°
2026-05-06 18:01 50.58866 -0.97140 17386 ft 327 kts 30°
2026-05-06 18:01 50.60790 -0.95278 17006 ft 323 kts 30°
2026-05-06 18:01 50.62700 -0.93425 16621 ft 321 kts 30°
2026-05-06 18:01 50.64591 -0.91592 16253 ft 319 kts 30°
2026-05-06 18:02 50.66483 -0.89758 15876 ft 318 kts 30°
2026-05-06 18:02 50.68357 -0.87939 15503 ft 316 kts 30°
2026-05-06 18:02 50.70226 -0.86122 15126 ft 315 kts 30°
2026-05-06 18:02 50.72073 -0.84324 14763 ft 314 kts 30°
2026-05-06 18:03 50.73951 -0.82494 14392 ft 313 kts 30°
2026-05-06 18:03 50.75799 -0.80691 14080 ft 310 kts 30°
2026-05-06 18:03 50.77616 -0.78913 13740 ft 309 kts 30°
2026-05-06 18:03 50.79356 -0.76938 13264 ft 307 kts 41°
2026-05-06 18:04 50.80696 -0.74338 12989 ft 306 kts 57°
2026-05-06 18:04 50.81545 -0.71292 12857 ft 300 kts 73°
2026-05-06 18:04 50.81964 -0.68105 12717 ft 291 kts 78°
2026-05-06 18:04 50.82327 -0.65007 12588 ft 283 kts 78°
2026-05-06 18:05 50.82680 -0.61988 12453 ft 275 kts 78°
2026-05-06 18:05 50.83022 -0.59050 12261 ft 269 kts 77°
2026-05-06 18:05 50.83358 -0.56154 11979 ft 268 kts 78°
2026-05-06 18:05 50.83693 -0.53262 11700 ft 266 kts 77°
2026-05-06 18:06 50.84025 -0.50392 11427 ft 264 kts 78°
2026-05-06 18:06 50.84354 -0.47540 11144 ft 263 kts 77°
2026-05-06 18:06 50.84678 -0.44740 10861 ft 261 kts 78°
2026-05-06 18:06 50.85005 -0.41918 10581 ft 259 kts 77°
2026-05-06 18:07 50.85328 -0.39109 10294 ft 258 kts 78°
2026-05-06 18:07 50.85645 -0.36325 10000 ft 256 kts 77°
2026-05-06 18:07 50.85960 -0.33558 9687 ft 255 kts 77°
2026-05-06 18:07 50.86272 -0.30810 9356 ft 253 kts 77°
2026-05-06 18:08 50.86583 -0.28071 9038 ft 252 kts 77°
2026-05-06 18:08 50.86889 -0.25347 8965 ft 251 kts 78°
2026-05-06 18:08 50.87198 -0.22606 8974 ft 253 kts 78°
2026-05-06 18:08 50.87508 -0.19861 8974 ft 253 kts 77°
2026-05-06 18:09 50.87814 -0.17122 8974 ft 253 kts 78°
2026-05-06 18:09 50.88121 -0.14371 8972 ft 254 kts 78°
2026-05-06 18:09 50.88428 -0.11614 8975 ft 254 kts 78°
2026-05-06 18:09 50.88730 -0.08895 8976 ft 254 kts 77°
2026-05-06 18:10 50.89349 -0.06328 8977 ft 249 kts 48°
2026-05-06 18:10 50.90752 -0.04870 8980 ft 243 kts 12°
2026-05-06 18:10 50.92410 -0.04791 8979 ft 240 kts 346°
2026-05-06 18:10 50.93920 -0.05852 8977 ft 239 kts 322°
2026-05-06 18:11 50.95145 -0.07630 8977 ft 239 kts 316°
2026-05-06 18:11 50.95964 -0.08859 8979 ft 240 kts 316°
2026-05-06 18:11 50.97248 -0.11740 8974 ft 238 kts 294°
2026-05-06 18:11 50.97703 -0.14163 8860 ft 228 kts 285°
2026-05-06 18:12 50.98090 -0.16582 8722 ft 218 kts 285°
2026-05-06 18:12 50.98457 -0.18883 8491 ft 213 kts 285°
2026-05-06 18:12 50.98514 -0.21189 8188 ft 215 kts 258°
2026-05-06 18:12 50.97791 -0.23240 7870 ft 218 kts 225°
2026-05-06 18:13 50.96447 -0.24343 7572 ft 222 kts 191°
2026-05-06 18:13 50.94931 -0.24070 7256 ft 222 kts 154°
2026-05-06 18:13 50.93785 -0.22503 7006 ft 218 kts 118°
2026-05-06 18:13 50.93269 -0.20244 6971 ft 220 kts 103°
2026-05-06 18:14 50.92865 -0.17891 6977 ft 222 kts 102°
2026-05-06 18:14 50.92455 -0.15524 6978 ft 222 kts 103°
2026-05-06 18:14 50.92044 -0.13165 6976 ft 222 kts 103°
2026-05-06 18:14 50.91891 -0.10625 6984 ft 239 kts 77°
2026-05-06 18:15 50.92590 -0.08277 6981 ft 238 kts 45°
2026-05-06 18:15 50.93457 -0.07195 6980 ft 235 kts 24°
2026-05-06 18:15 50.95029 -0.06719 6974 ft 231 kts 351°
2026-05-06 18:15 50.96472 -0.07655 6976 ft 230 kts 320°
2026-05-06 18:16 50.97377 -0.09758 6997 ft 232 kts 287°
2026-05-06 18:16 50.97646 -0.12286 6980 ft 234 kts 277°
2026-05-06 18:16 50.97797 -0.14840 6976 ft 235 kts 276°
2026-05-06 18:16 50.97936 -0.17431 6978 ft 235 kts 276°
2026-05-06 18:17 50.98066 -0.20047 6978 ft 235 kts 276°
2026-05-06 18:17 50.98198 -0.22631 6887 ft 234 kts 276°
2026-05-06 18:17 50.98326 -0.25172 6551 ft 233 kts 276°
2026-05-06 18:17 50.98448 -0.27718 6200 ft 231 kts 276°
2026-05-06 18:18 50.98577 -0.30298 5807 ft 232 kts 276°
2026-05-06 18:18 50.98698 -0.32807 5472 ft 230 kts 276°
2026-05-06 18:18 50.98814 -0.35332 5117 ft 229 kts 276°
2026-05-06 18:18 50.98941 -0.37851 4751 ft 229 kts 276°
2026-05-06 18:19 50.99061 -0.40365 4387 ft 228 kts 276°
2026-05-06 18:19 50.99318 -0.42821 4094 ft 221 kts 296°
2026-05-06 18:19 51.00264 -0.44596 3960 ft 208 kts 329°
2026-05-06 18:19 51.01571 -0.45443 3841 ft 199 kts 344°
2026-05-06 18:20 51.02884 -0.46014 3723 ft 192 kts 346°
2026-05-06 18:20 51.04149 -0.46537 3632 ft 183 kts 346°
2026-05-06 18:20 51.05357 -0.47034 3412 ft 178 kts 346°
2026-05-06 18:20 51.06554 -0.47538 3107 ft 178 kts 346°
2026-05-06 18:21 51.07736 -0.48042 3002 ft 177 kts 347°
2026-05-06 18:21 51.08951 -0.47911 3011 ft 178 kts 18°
2026-05-06 18:21 51.10049 -0.47006 3008 ft 179 kts 36°
2026-05-06 18:21 51.10892 -0.45549 3009 ft 181 kts 54°
2026-05-06 18:22 51.11376 -0.43696 3008 ft 184 kts 73°
2026-05-06 18:22 51.11654 -0.41706 3007 ft 183 kts 75°
2026-05-06 18:22 51.11929 -0.39786 2797 ft 178 kts 75°
2026-05-06 18:22 51.12193 -0.37885 2392 ft 176 kts 75°
2026-05-06 18:23 51.12450 -0.36033 2145 ft 168 kts 74°
2026-05-06 18:23 51.12696 -0.34267 1966 ft 156 kts 73°
2026-05-06 18:23 51.12923 -0.32638 1774 ft 146 kts 74°
2026-05-06 18:23 51.13139 -0.31086 1585 ft 139 kts 74°
2026-05-06 18:24 51.13343 -0.29619 1397 ft 132 kts 73°
2026-05-06 18:24 51.13542 -0.28201 1214 ft 131 kts 72°
2026-05-06 18:24 51.13736 -0.26804 1033 ft 128 kts 74°
2026-05-06 18:24 51.13928 -0.25421 853 ft 128 kts 74°
2026-05-06 18:25 51.14119 -0.24053 664 ft 126 kts 75°
2026-05-06 18:25 51.14307 -0.22720 504 ft 125 kts 75°
2026-05-06 18:25 51.14495 -0.21355 332 ft 124 kts 76°
2026-05-06 18:25 51.14679 -0.20033 212 ft 115 kts 76°
2026-05-06 18:26 51.14811 -0.19079 209 ft 58 kts 78°
2026-05-06 18:26 51.14889 -0.18627 206 ft 25 kts 54°
2026-05-06 18:26 51.14993 -0.18421 205 ft 24 kts 52°
2026-05-06 18:26 51.15096 -0.18212 205 ft 22 kts 51°
2026-05-06 18:27 51.15146 -0.17972 211 ft 23 kts 78°
2026-05-06 18:27 51.15165 -0.17835 205 ft 0 kts 78°
2026-05-06 18:28 51.15166 -0.17825 205 ft 4 kts 78°
2026-05-06 18:28 51.15182 -0.17707 205 ft 18 kts 78°
2026-05-06 18:28 51.15214 -0.17481 205 ft 22 kts 77°
2026-05-06 18:29 51.15283 -0.17353 205 ft 15 kts 355°
2026-05-06 18:29 51.15398 -0.17389 212 ft 19 kts 347°
2026-05-06 18:29 51.15519 -0.17436 210 ft 17 kts 344°
2026-05-06 18:29 51.15625 -0.17472 209 ft 14 kts 349°
2026-05-06 18:30 51.15715 -0.17500 210 ft 12 kts 349°
2026-05-06 18:30 51.15772 -0.17446 205 ft 9 kts 72°
2026-05-06 18:30 51.15784 -0.17354 205 ft 8 kts 77°
2026-05-06 18:30 51.15801 -0.17238 208 ft 13 kts 76°
2026-05-06 18:31 51.15828 -0.17096 208 ft 12 kts 49°
2026-05-06 18:31 51.15896 -0.17061 216 ft 10 kts 29°
2026-05-06 18:31 51.15937 -0.17081 214 ft 6 kts 308°
2026-05-06 18:31 51.15970 -0.17131 210 ft 6 kts 316°
2026-05-06 18:32 51.15977 -0.17142 211 ft 0 kts 316°
2026-05-06 18:32 51.15977 -0.17143 211 ft 0 kts 316°